EW2997 Weather Reports


time (UTC)temp
F
wind
direction
speed
knots
gust
knots
rain 1hr
in
rain 24hr
in
rain mn
in
humidity
%
barometer
mb
20260906165825 76 281 0.0 0.0 0.00 0.00 0.00 58 1020.2
20260906162820 75 88 2.6 3.5 0.00 0.00 0.00 61 1020.5
20260906155816 75 66 1.7 1.7 0.00 0.00 0.00 63 1020.5
20260906152813 75 36 0.0 0.0 0.00 0.00 0.00 67 1020.2
20260906145810 73 94 1.7 1.7 0.00 0.00 0.00 69 1020.5
20260906142808 72 42 0.9 0.9 0.00 0.00 0.00 69 1020.5
20260906135806 71 42 1.7 1.7 0.00 0.00 0.00 73 1020.2
20260906132802 70 48 0.0 0.0 0.00 0.00 0.00 73 1020.2
20260906125800 69 110 0.0 0.0 0.00 0.00 0.00 75 1019.8
20260906122759 65 143 0.0 0.0 0.00 0.00 0.00 81 1019.8
20260906115758 59 96 0.0 0.0 0.00 0.00 0.00 96 1019.5
20260906112754 57 96 0.0 0.0 0.00 0.00 0.00 97 1019.0
20260906105751 56 96 0.0 0.0 0.00 0.00 0.00 97 1018.7
20260906102747 57 96 0.0 0.0 0.00 0.00 0.00 97 1018.7
20260906095744 57 96 0.0 0.0 0.00 0.00 0.00 97 1018.4
20260906092743 58 96 0.0 0.0 0.00 0.00 0.00 96 1018.4
20260906085742 58 96 0.9 0.9 0.00 0.00 0.00 96 1018.0
20260906082739 58 96 0.0 0.0 0.00 0.00 0.00 96 1018.0
20260906075735 58 96 0.0 0.0 0.00 0.00 0.00 96 1017.7
20260906072732 59 96 0.0 0.0 0.00 0.00 0.00 96 1017.7
20260906065732 60 96 0.0 0.0 0.00 0.00 0.00 95 1017.7
20260906062727 60 96 0.0 0.0 0.00 0.00 0.00 96 1017.7
20260906055724 60 96 0.0 0.0 0.00 0.00 0.00 96 1017.7
20260906052720 61 96 0.0 0.0 0.00 0.00 0.00 95 1017.7
20260906045719 61 96 0.0 0.0 0.00 0.00 0.00 94 1018.0
20260906042714 61 96 0.0 0.0 0.00 0.00 0.00 94 1017.7
20260906035714 62 96 0.0 0.0 0.00 0.00 0.00 94 1018.0
20260906032709 63 96 0.0 0.0 0.00 0.00 0.00 92 1017.7
20260906025705 65 96 0.0 0.0 0.00 0.00 0.00 90 1017.4
20260906022701 66 96 0.0 0.0 0.00 0.00 0.00 90 1017.4
20260906015659 67 96 0.0 0.0 0.00 0.00 0.00 90 1017.0
20260906012657 66 96 0.0 0.0 0.00 0.00 0.00 92 1016.7
20260906005656 67 96 0.0 0.0 0.00 0.00 0.00 88 1016.7
20260906002653 67 96 0.0 0.0 0.00 0.00 0.00 86 1016.3
20260905235651 69 96 0.0 0.0 0.00 0.00 0.00 84 1016.0
20260905232649 72 96 0.0 0.0 0.00 0.00 0.00 74 1015.6
20260905225647 76 94 1.7 1.7 0.00 0.00 0.00 64 1015.6
20260905222642 77 76 0.9 0.9 0.00 0.00 0.00 66 1015.2
20260905215637 79 52 1.7 1.7 0.00 0.00 0.00 60 1014.9
20260905212632 79 42 1.7 1.7 0.00 0.00 0.00 59 1014.9
20260905205630 78 51 0.0 0.0 0.00 0.00 0.00 64 1015.2
20260905202627 80 42 0.0 0.0 0.00 0.00 0.00 58 1015.2
20260905195624 80 54 1.7 1.7 0.00 0.00 0.00 61 1014.9
20260905192622 81 6 1.7 1.7 0.00 0.00 0.00 56 1015.6
20260905185619 79 53 0.9 0.9 0.00 0.00 0.00 62 1015.6
20260905182619 78 78 0.0 0.0 0.00 0.00 0.00 66 1016.0
20260905175614 78 175 1.7 1.7 0.00 0.00 0.00 65 1016.3
20260905172614 77 342 1.7 1.7 0.00 0.00 0.00 66 1016.3